Regional Weather Roundup
Issued by NWS State College, PA

Home | Current Version | Previous Version | Text Only | Print | Product List | Glossary Off
Versions: 1 2 3 4 5 6 7 8 9 10 11 12 13 14 15 16 17 18 19 20 21 22 23 24 25 26 27 28 29 30 31 32 33 34 35 36 37 38 39 40 41 42 43 44 45 46 47 48 49 50

000
ASUS41 KCTP 250610
RWRCTP
PHLRWRCTP ALL

REGIONAL WEATHER ROUNDUP
NATIONAL WEATHER SERVICE STATE COLLEGE PA
200 AM EDT MON SEP 25 2017

Note: "fair" indicates few or no clouds below 12,000 feet with no
significant weather and/or obstructions to visibility.

* = STATION THAT DOES NOT REPORT PRECIPITATION /E.G. RAIN...SNOW...ETC/
    THUNDER OR FOG.

PAZ002>004-007>009-013>016-020>023-029>032-250700-
WESTERN PENNSYLVANIA

CITY           SKY/WX    TMP DP  RH WIND       PRES   REMARKS
ERIE           CLEAR     73  65  75 SE5       30.09S
MEADVILLE      CLEAR     73  66  78 E7        30.12F
FRANKLIN*      CLEAR     68  64  88 E6        30.14S
NEW CASTLE     FAIR      63  62  97 CALM      30.11S
BEAVER COUNTY  NOT AVBL
BUTLER*        CLEAR     66  62  87 NE3       30.11F
PITTSBURGH INT CLEAR     69  64  84 CALM      30.09F
PITTSBURGH     CLEAR     71  62  73 NE3       30.09F
INDIANA*       CLEAR     64  64 100 CALM      30.14F
LATROBE        CLEAR     63  63 100 CALM      30.11F
WASHINGTON CO*   N/A     61  57  88 CALM      30.10S VSB 1/2
$$

PAZ004>006-010>012-017>019-024>028-033>037-041-042-045-046-049>053-250700-
CENTRAL PENNSYLVANIA

CITY           SKY/WX    TMP DP  RH WIND       PRES   REMARKS
BRADFORD       CLEAR     61  60  97 CALM      30.17F FOG
DUBOIS         CLEAR     67  60  78 E3        30.14S
CLEARFIELD     CLEAR     64  62  93 CALM      30.14S
JOHNSTOWN      CLEAR     67  62  84 NE3       30.16S
ALTOONA        CLEAR     64  63  96 CALM      30.12F FOG
STATE COLLEGE  PTCLDY    69  65  89 CALM      30.12S
WILLIAMSPORT   CLEAR     68  67  96 CALM      30.08S
SELINSGROVE    CLEAR     64  64 100 CALM      30.08S FOG
FT INDIANTOWN  CLEAR     67  67 100 S3        30.01F
CAPITAL CITY   CLEAR     69  66  90 W3        30.05S
HARRISBURG     CLEAR     72  70  93 N5        30.04S
YORK           CLEAR     63  63 100 CALM      30.05F
$$

PAZ038>040-043-044-047-048-054-055-060>062-067>071-250700-
EASTERN PENNSYLVANIA

CITY           SKY/WX    TMP DP  RH WIND       PRES   REMARKS
SCRANTON       CLEAR     69  65  86 E6        30.09F
MOUNT POCONO   CLEAR     72  64  76 N8        30.13F
ALLENTOWN      CLEAR     68  64  87 N5        30.04F
QUAKERTOWN*    CLEAR     64  64 100 CALM      30.05F
READING        CLEAR     69  68  96 CALM      30.03F
LANCASTER      CLEAR     70  68  93 CALM      30.04F
COATESVILLE    CLEAR     68  64  88 CALM      30.06S
POTTSTOWN      CLEAR     65  65 100 CALM      30.05F
BLUE BELL      CLEAR     63  63 100 CALM      30.04F
DOYLESTOWN     CLEAR     68  66  93 CALM      30.03F
WILLOW GROVE   NOT AVBL
NORTH PHILA    CLEAR     72  66  81 CALM      30.03F
PHILADELPHIA   PTCLDY    72  67  84 S5        30.02F
$$




USA.gov is the U.S. government's official web portal to all federal, state and local government web resources and services.